SCP
0 0 0 0 0 0 0 0 0 0 0 0 0 0 0 0 0 -0 -0 0 -0 -0 -0 -0 -0 -0 -0 0 0 0 0 0
0 -0 0 0 0 0 0 0 0 -0 0 -0 0 0 0 0 -0 0 0 -0 -0 -0 0 0 0 0 0 0 0 0 0 1
0 -0 0 0 0 0 0 0 0 -0 -0 0 -0 0 0 0 0 0 -0 -0 0 -0 0 0 0 0 1 0 0 0 0 1
0 0 0 0 0 0 0 0 0 0 0 -0 0 0 0 0 -0 0 -0 -0 0 -0 0 0 0 0 0 1 0 1 0 0
0 -0 0 0 0 0 0 0 0 0 -0 0 0 1 0 0 2 1 0 -0 0 -0 0 -0 -0 0 0 0 0 0 1 0
0 0 0 0 0 0 0 0 0 0 0 0 0 0 0 2 2 4 4 1 0 0 -0 0 -0 0 0 0 0 0 1 0
0 0 -0 -0 0 0 0 0 0 0 -0 -0 0 0 2 4 2 1 0 1 1 2 1 0 0 0 0 0 0 1 1 0
0 -0 -0 0 0 0 0 0 0 0 -0 1 3 2 0 0 0 0 0 0 0 0 2 3 2 1 0 0 0 0 1 1
-0 -0 0 -0 0 -0 0 0 0 0 0 2 4 1 0 0 0 0 0 0 0 0 1 1 1 1 2 2 1 0 1 1
-0 -0 -0 -0 -0 -0 -0 -0 0 0 4 4 1 0 0 0 0 0 0 0 0 0 0 0 0 2 2 2 4 2 2 2
0 0 0 0 -0 -0 -0 0 0 1 2 1 0 0 0 0 0 0 0 0 0 0 0 0 0 0 1 1 1 1 2 2
0 0 0 -0 0 -0 -0 0 0 0 1 0 1 1 0 0 0 0 0 0 0 0 0 0 0 0 1 0 0 0 0 1
0 0 -0 0 0 -0 -0 0 0 0 0 1 0 0 0 0 0 0 0 0 0 0 0 0 0 0 0 0 0 0 0 0
0 0 0 0 -0 -0 -0 -0 0 0 0 0 0 0 0 0 0 0 0 0 0 0 0 0 0 0 0 0 0 0 1 0
0 0 0 0 0 0 0 0 -0 0 0 0 0 0 0 0 0 0 0 0 0 0 0 0 0 0 0 0 0 0 0 0
0 0 0 0 0 0 0 0 0 0 0 0 0 0 0 0 0 0 0 0 0 0 0 0 0 0 0 0 0 0 0 1
0 -0 0 0 0 0 0 -0 -0 0 0 0 0 0 0 0 0 0 0 0 0 0 0 0 0 0 0 0 0 0 0 0
-0 -0 0 0 0 0 0 -0 -0 0 -0 0 -0 0 0 0 0 0 0 0 0 0 0 0 0 0 0 0 0 0 0 0
-0 -0 0 0 0 0 0 0 0 0 0 0 0 0 0 0 0 0 0 0 0 0 0 0 0 0 0 0 0 0 0 0
Wind_Speed_500mb
34 36 36 46 31 28 20 26 20 15 15 33 23 25 49 72 77 86 92 84 97 104 105 98 87 90 82 72 62 70 77 71
38 27 42 33 31 22 17 23 29 13 8 10 15 30 28 46 82 90 94 86 88 107 109 104 96 88 87 76 65 64 72 76
33 12 24 30 28 29 17 14 19 13 13 20 20 5 11 43 86 90 94 95 91 93 105 105 99 91 90 81 74 65 66 71
41 41 36 33 26 26 23 18 9 10 32 6 13 18 19 18 91 89 99 100 94 97 108 109 104 98 95 87 82 73 61 65
32 17 13 10 30 37 21 13 32 10 12 7 24 21 21 41 34 54 67 100 95 100 100 110 108 102 98 92 86 75 65 64
20 38 34 42 49 44 42 13 22 27 30 10 25 38 24 67 68 52 22 55 93 97 109 109 109 106 101 99 89 78 68 67
33 39 32 36 44 41 33 31 19 22 12 10 25 18 34 39 67 57 51 46 45 47 76 85 93 99 95 94 94 85 78 74
35 35 36 40 49 36 31 35 17 8 8 35 55 52 61 53 44 60 61 49 53 61 61 55 42 88 98 96 97 88 83 79
21 26 36 22 21 38 40 37 27 14 15 38 25 39 31 34 42 32 29 37 41 62 72 80 50 57 64 85 90 86 80 76
23 24 23 16 29 25 28 33 54 10 32 30 44 44 53 52 37 24 5 9 25 32 42 35 32 45 51 47 66 67 68 66
17 17 27 38 16 13 16 27 42 24 22 46 61 61 39 31 30 23 17 21 31 26 26 16 22 15 34 37 37 42 38 37
19 13 22 5 23 23 17 3 47 49 2 12 18 11 6 13 24 22 28 29 26 25 23 25 24 16 29 29 26 38 37 37
24 18 11 6 25 26 9 12 45 52 47 20 12 24 39 27 26 23 24 29 26 23 16 16 14 14 16 15 16 31 41 38
11 16 22 41 16 2 11 22 36 38 46 44 45 40 37 31 30 30 31 32 33 32 32 26 19 11 7 4 5 8 26 29
2 9 20 28 10 8 5 40 42 44 29 31 29 34 35 30 25 27 32 35 37 37 35 38 28 24 21 18 8 6 3 3
7 10 28 31 27 4 22 42 45 36 23 17 8 29 34 45 46 43 41 40 38 38 37 33 27 23 17 17 19 22 18 18
4 3 34 39 29 10 24 37 48 43 25 18 15 18 30 37 39 39 39 33 29 29 28 26 24 23 16 20 23 28 24 18
8 15 10 46 20 5 27 46 46 42 21 20 19 22 23 34 37 38 35 35 33 31 33 32 30 29 22 13 14 15 16 18
13 17 17 29 16 14 21 33 47 49 38 34 22 18 21 31 34 29 30 29 26 26 22 20 24 31 30 16 7 2 7 5
Wind_Direction_500mb
256 272 246 267 265 260 239 261 274 260 269 266 180 173 177 188 186 188 192 196 181 184 190 190 195 198 203 204 208 203 201 202
307 293 277 238 253 270 248 235 251 270 260 252 257 189 184 177 179 188 190 191 185 185 190 192 193 199 204 208 211 209 203 205
319 306 262 282 243 250 251 226 237 263 264 208 269 249 185 180 180 184 187 192 193 185 187 195 194 197 203 207 210 213 211 210
290 288 288 280 278 234 237 259 261 241 252 278 141 17 248 263 181 185 189 193 194 191 186 192 194 193 203 206 209 213 216 216
322 323 295 288 335 328 248 184 240 239 275 271 104 42 57 13 119 170 201 196 187 184 183 190 195 192 197 207 209 212 217 217
269 280 298 307 317 315 312 204 231 243 254 226 148 142 277 58 31 49 43 203 186 182 186 188 190 192 198 205 211 213 213 213
297 290 318 309 302 301 309 298 220 244 266 236 189 128 96 77 50 7 347 79 109 163 181 182 186 193 201 206 209 212 212 212
313 309 318 300 305 290 292 291 261 252 355 88 94 65 69 77 86 20 351 21 79 107 154 155 181 198 202 205 207 209 210 215
280 314 315 301 349 360 341 305 289 207 136 110 69 94 101 91 84 55 344 346 68 95 114 142 200 194 196 205 207 209 212 215
272 314 290 261 36 17 331 20 352 43 97 107 102 88 86 117 141 169 201 49 59 96 105 112 132 147 163 171 194 207 214 217
247 263 279 293 19 14 6 322 358 10 80 106 105 87 56 96 126 133 105 72 69 77 112 140 168 149 163 180 193 194 199 216
254 275 270 47 4 321 290 265 351 350 207 146 176 87 132 98 85 70 75 66 66 80 80 95 113 183 192 217 262 240 241 232
225 244 264 6 329 301 22 316 330 3 17 63 66 91 127 117 102 85 71 73 68 62 72 68 78 99 124 149 239 254 246 247
278 219 257 10 315 80 114 38 23 21 35 54 84 93 102 96 92 93 89 82 73 69 64 63 49 47 80 122 147 212 253 256
93 342 346 345 2 87 107 80 48 44 45 57 90 103 103 97 96 89 83 79 73 76 72 69 74 77 86 80 126 160 201 185
79 357 341 319 309 348 101 88 66 59 58 57 83 116 102 100 97 97 95 90 84 78 70 61 61 74 74 67 88 83 76 73
338 298 335 287 264 348 118 93 79 67 65 83 60 76 108 100 98 99 96 88 76 69 68 61 38 50 76 77 83 82 72 83
195 170 179 275 250 30 142 140 114 110 104 87 96 89 100 86 91 88 80 89 81 64 50 40 30 33 42 56 67 80 86 87
142 166 213 224 202 63 105 131 130 124 125 122 107 98 76 73 76 84 77 69 61 54 47 40 18 10 11 32 62 345 32 54
Wind_Speed_850mb
34 36 36 46 31 28 20 26 20 15 15 33 23 25 49 72 77 86 92 84 97 104 105 98 87 90 82 72 62 70 77 71
38 27 42 33 31 22 17 23 29 13 8 10 15 30 28 46 82 90 94 86 88 107 109 104 96 88 87 76 65 64 72 76
33 12 24 30 28 29 17 14 19 13 13 20 20 5 11 43 86 90 94 95 91 93 105 105 99 91 90 81 74 65 66 71
41 41 36 33 26 26 23 18 9 10 32 6 13 18 19 18 91 89 99 100 94 97 108 109 104 98 95 87 82 73 61 65
32 17 13 10 30 37 21 13 32 10 12 7 24 21 21 41 34 54 67 100 95 100 100 110 108 102 98 92 86 75 65 64
20 38 34 42 49 44 42 13 22 27 30 10 25 38 24 67 68 52 22 55 93 97 109 109 109 106 101 99 89 78 68 67
33 39 32 36 44 41 33 31 19 22 12 10 25 18 34 39 67 57 51 46 45 47 76 85 93 99 95 94 94 85 78 74
35 35 36 40 49 36 31 35 17 8 8 35 55 52 61 53 44 60 61 49 53 61 61 55 42 88 98 96 97 88 83 79
21 26 36 22 21 38 40 37 27 14 15 38 25 39 31 34 42 32 29 37 41 62 72 80 50 57 64 85 90 86 80 76
23 24 23 16 29 25 28 33 54 10 32 30 44 44 53 52 37 24 5 9 25 32 42 35 32 45 51 47 66 67 68 66
17 17 27 38 16 13 16 27 42 24 22 46 61 61 39 31 30 23 17 21 31 26 26 16 22 15 34 37 37 42 38 37
19 13 22 5 23 23 17 3 47 49 2 12 18 11 6 13 24 22 28 29 26 25 23 25 24 16 29 29 26 38 37 37
24 18 11 6 25 26 9 12 45 52 47 20 12 24 39 27 26 23 24 29 26 23 16 16 14 14 16 15 16 31 41 38
11 16 22 41 16 2 11 22 36 38 46 44 45 40 37 31 30 30 31 32 33 32 32 26 19 11 7 4 5 8 26 29
2 9 20 28 10 8 5 40 42 44 29 31 29 34 35 30 25 27 32 35 37 37 35 38 28 24 21 18 8 6 3 3
7 10 28 31 27 4 22 42 45 36 23 17 8 29 34 45 46 43 41 40 38 38 37 33 27 23 17 17 19 22 18 18
4 3 34 39 29 10 24 37 48 43 25 18 15 18 30 37 39 39 39 33 29 29 28 26 24 23 16 20 23 28 24 18
8 15 10 46 20 5 27 46 46 42 21 20 19 22 23 34 37 38 35 35 33 31 33 32 30 29 22 13 14 15 16 18
13 17 17 29 16 14 21 33 47 49 38 34 22 18 21 31 34 29 30 29 26 26 22 20 24 31 30 16 7 2 7 5
Wind_Direction_850mb
256 272 246 267 265 260 239 261 274 260 269 266 180 173 177 188 186 188 192 196 181 184 190 190 195 198 203 204 208 203 201 202
307 293 277 238 253 270 248 235 251 270 260 252 257 189 184 177 179 188 190 191 185 185 190 192 193 199 204 208 211 209 203 205
319 306 262 282 243 250 251 226 237 263 264 208 269 249 185 180 180 184 187 192 193 185 187 195 194 197 203 207 210 213 211 210
290 288 288 280 278 234 237 259 261 241 252 278 141 17 248 263 181 185 189 193 194 191 186 192 194 193 203 206 209 213 216 216
322 323 295 288 335 328 248 184 240 239 275 271 104 42 57 13 119 170 201 196 187 184 183 190 195 192 197 207 209 212 217 217
269 280 298 307 317 315 312 204 231 243 254 226 148 142 277 58 31 49 43 203 186 182 186 188 190 192 198 205 211 213 213 213
297 290 318 309 302 301 309 298 220 244 266 236 189 128 96 77 50 7 347 79 109 163 181 182 186 193 201 206 209 212 212 212
313 309 318 300 305 290 292 291 261 252 355 88 94 65 69 77 86 20 351 21 79 107 154 155 181 198 202 205 207 209 210 215
280 314 315 301 349 360 341 305 289 207 136 110 69 94 101 91 84 55 344 346 68 95 114 142 200 194 196 205 207 209 212 215
272 314 290 261 36 17 331 20 352 43 97 107 102 88 86 117 141 169 201 49 59 96 105 112 132 147 163 171 194 207 214 217
247 263 279 293 19 14 6 322 358 10 80 106 105 87 56 96 126 133 105 72 69 77 112 140 168 149 163 180 193 194 199 216
254 275 270 47 4 321 290 265 351 350 207 146 176 87 132 98 85 70 75 66 66 80 80 95 113 183 192 217 262 240 241 232
225 244 264 6 329 301 22 316 330 3 17 63 66 91 127 117 102 85 71 73 68 62 72 68 78 99 124 149 239 254 246 247
278 219 257 10 315 80 114 38 23 21 35 54 84 93 102 96 92 93 89 82 73 69 64 63 49 47 80 122 147 212 253 256
93 342 346 345 2 87 107 80 48 44 45 57 90 103 103 97 96 89 83 79 73 76 72 69 74 77 86 80 126 160 201 185
79 357 341 319 309 348 101 88 66 59 58 57 83 116 102 100 97 97 95 90 84 78 70 61 61 74 74 67 88 83 76 73
338 298 335 287 264 348 118 93 79 67 65 83 60 76 108 100 98 99 96 88 76 69 68 61 38 50 76 77 83 82 72 83
195 170 179 275 250 30 142 140 114 110 104 87 96 89 100 86 91 88 80 89 81 64 50 40 30 33 42 56 67 80 86 87
142 166 213 224 202 63 105 131 130 124 125 122 107 98 76 73 76 84 77 69 61 54 47 40 18 10 11 32 62 345 32 54